Regional Weather Roundup
Issued by NWS

Home | Current Version | Previous Version | Text Only | Print | Product List | Glossary Off
Versions: 1 2 3 4 5 6 7 8 9 10 11 12 13 14 15 16 17 18 19 20 21 22 23 24 25 26 27 28 29 30 31 32 33 34 35 36 37 38 39 40 41 42 43 44 45 46 47 48 49 50

507
ASUS44 KJAN 231210
RWRMS

MISSISSIPPI HOURLY WEATHER ROUNDUP
NATIONAL WEATHER SERVICE JACKSON MS
700 AM CDT WED APR 23 2014

NOTE: "FAIR: INDICATES FEW OR NO CLOUDS BELOW 12,000 FEET WITH NO
SIGNIFICANT WEATHER AND/OR OBSTRUCTIONS TO VISIBILITY.

MSZ001>002-007>008-010>013-018>021-025>028-034>036-231300-
NORTHWEST MISSISSIPPI

CITY           SKY/WX    TMP DP  RH WIND       PRES   REMARKS
CLARKSDALE       N/A     52  46  82 NE6       30.04R
CLEVELAND      FAIR      54  48  82 NE5       30.01R
GREENWOOD      CLEAR     53  46  77 CALM      30.01R
6HR MIN TEMP:  49; 6HR MAX TEMP:  57;

GREENVILLE     CLEAR     53  49  86 NE3       30.00R
6HR MIN TEMP:  50; 6HR MAX TEMP:  59;

GRENADA        FAIR      46  45  93 N5        30.03R
OLIVE BRANCH   PTCLDY    48  46  93 NE5       30.05R
OXFORD         FAIR      45  41  87 NE3       30.05R
TUNICA         SUNNY     46  43  87 NE3       30.04R
$$

MSZ003>006-009-014>017-022>024-029>033-037>039-231300-
NORTHEAST MISSISSIPPI

CITY           SKY/WX    TMP DP  RH WIND       PRES   REMARKS
BELMONT        FAIR      50  43  77 CALM      30.03R
COLUMBUS AFB   CLEAR     53  48  82 NW2       30.01R
6HR MIN TEMP:  52; 6HR MAX TEMP:  62;

CORINTH        FAIR      45  41  87 NW3       30.04R
GOLDN TRIANGLE CLEAR     54  45  71 N6        30.02R
STARKVILLE     FAIR      52  48  87 CALM      30.01R
TUPELO         CLEAR     50  43  77 NE7       30.02R
6HR MIN TEMP:  48; 6HR MAX TEMP:  57;

$$

MSZ040-058-231300-
CENTRAL MISSISSIPPI

CITY           SKY/WX    TMP DP  RH WIND       PRES   REMARKS
JACKSON INTL   PTCLDY    52  51  97 CALM      29.99R FOG
6HR MIN TEMP:  49; 6HR MAX TEMP:  59;

JACKSON HAWKNS CLEAR     56  53  90 NW5       29.99R
6HR MIN TEMP:  55; 6HR MAX TEMP:  64;

MERIDIAN KEY   CLEAR     53  52  96 N3        29.98R
6HR MIN TEMP:  51; 6HR MAX TEMP:  57;

MERIDIAN NAS   CLEAR     55  53  93 CALM      29.99R
6HR MIN TEMP:  54; 6HR MAX TEMP:  59;

RAYMOND        HAZE      50  46  87 CALM      30.00R VSB<1/4
VICKSBURG      FOG       55  54  96 CALM      29.99R VSB<1/4
6HR MIN TEMP:  53; 6HR MAX TEMP:  62;

$$

MSZ059>079-231300-
SOUTH MISSISSIPPI

CITY           SKY/WX    TMP DP  RH WIND       PRES   REMARKS
BROOKHAVEN     FOG       55  55 100 CALM      30.00R VSB 1/2
HATTIESBURG    CLEAR     57  55  93 CALM      29.98R FOG
6HR MIN TEMP:  54; 6HR MAX TEMP:  58;

MCCOMB         CLEAR     62  58  86 N5        29.98R
6HR MIN TEMP:  58; 6HR MAX TEMP:  63;

NATCHEZ        CLEAR     54  52  94 CALM      29.98R
6HR MIN TEMP:  54; 6HR MAX TEMP:  59;

PINE BELT      CLEAR     59  54  82 CALM      29.98R
6HR MIN TEMP:  59; 6HR MAX TEMP:  63;

$$

MSZ080>082-231300-
COASTAL MISSISSIPPI

CITY           SKY/WX    TMP DP  RH WIND       PRES   REMARKS
BAY ST LOUIS   CLEAR     52  50  93 CALM      29.95  FOG
BILOXI         CLEAR     63  63 100 CALM      29.96R
6HR MIN TEMP:  62; 6HR MAX TEMP:  66;

PASCAGOULA     FOG       60  60 100 CALM      29.96R VSB 1/4
6HR MIN TEMP:  57; 6HR MAX TEMP:  62;

GULFPORT       CLEAR     64  59  83 CALM      29.95R
6HR MIN TEMP:  61; 6HR MAX TEMP:  68;

$$



USA.gov is the U.S. government's official web portal to all federal, state and local government web resources and services.